Weather History for Slidell, LA

Change the Weather History Date:

Monday, March 10, 2014

  Actual Average (KNEW) Record (KNEW)
Temperature  
Mean Temperature 62 °F 62 °F  
Max Temperature 77 °F 71 °F 82 °F (2000)
Min Temperature 48 °F 53 °F 34 °F (1996)
Degree Days  
Heating Degree Days 2 5  
Month to date heating degree days 58  
Since 1 July heating degree days 1167  
Cooling Degree Days 0 2  
Month to date cooling degree days 15  
Year to date cooling degree days 52  
Growing Degree Days 12 (Base 50)    
Moisture  
Dew Point 51 °F    
Average Humidity 68    
Maximum Humidity 93    
Minimum Humidity 37    
Precipitation  
Precipitation 0.00 in 0.14 in 1.05 in (1992)
Month to date precipitation 1.51  
Year to date precipitation 11.96  
Snow  
Snow 0.00 in - - ()
Month to date snowfall  
Since 1 July snowfall  
Snow Depth -    
Sea Level Pressure  
Sea Level Pressure 30.07 in    
Wind  
Wind Speed 2 mph (SSW)    
Max Wind Speed 10 mph    
Max Gust Speed -    
Visibility 10 miles    
Events      
T = Trace of Precipitation, MM = Missing Value Source: NWS Daily Summary

Daily Weather History Graph

Daily Weather History Graph

Search for Another Location

Airport:

Trip Planner

Search our weather history database for the weather conditions in past years. The results will help you decide how hot, cold, wet, or windy it might be!

Date:

Astronomy

Mar. 10, 2014 Rise Set
Actual Time 7:15 AM CDT 7:04 PM CDT
Civil Twilight 6:51 AM CDT 7:28 PM CDT
Nautical Twilight 6:23 AM CDT 7:56 PM CDT
Astronomical Twilight 5:55 AM CDT 8:24 PM CDT
Moon 2:04 PM CDT (3/10) 3:10 AM CDT (3/10)
Length of Visible Light 12h 37m
Length of Day
11h 49m
Waxing Gibbous, 70% of the Moon is Illuminated
Mar 10
Waxing Gibbous
Mar 16
Full
Mar 23
Last Quarter
Mar 30
New
Apr 7
First Quarter

Hourly Weather History & Observations

Time (CDT) Temp. Dew Point Humidity Pressure Visibility Wind Dir Wind Speed Gust Speed Precip Events Conditions
12:53 AM 53.1 °F 51.1 °F 93% 30.15 in 10.0 mi Calm Calm - N/A   Clear
1:53 AM 52.0 °F 48.9 °F 89% 30.14 in 9.0 mi Calm Calm - N/A   Clear
2:53 AM 51.1 °F 48.9 °F 92% 30.13 in 10.0 mi Calm Calm - N/A   Clear
3:53 AM 50.0 °F 46.9 °F 89% 30.12 in 10.0 mi Calm Calm - N/A   Clear
4:53 AM 48.9 °F 46.0 °F 90% 30.11 in 10.0 mi Calm Calm - N/A   Scattered Clouds
5:53 AM 48.0 °F 45.0 °F 89% 30.12 in 10.0 mi Calm Calm - N/A   Clear
6:53 AM 48.9 °F 46.0 °F 90% 30.13 in 10.0 mi Calm Calm - N/A   Clear
7:53 AM 48.9 °F 46.0 °F 90% 30.14 in 8.0 mi Calm Calm - N/A   Clear
8:53 AM 55.9 °F 51.1 °F 84% 30.16 in 8.0 mi North 5.8 mph - N/A   Clear
9:53 AM 63.0 °F 52.0 °F 67% 30.15 in 10.0 mi Calm Calm - N/A   Clear
10:53 AM 71.1 °F 52.0 °F 51% 30.15 in 10.0 mi NNE 3.5 mph - N/A   Clear
11:53 AM 73.0 °F 52.0 °F 48% 30.12 in 10.0 mi South 4.6 mph - N/A   Clear
12:53 PM 75.0 °F 51.1 °F 43% 30.09 in 10.0 mi Variable 4.6 mph - N/A   Clear
1:53 PM 75.9 °F 52.0 °F 43% 30.06 in 10.0 mi Variable 5.8 mph - N/A   Clear
2:53 PM 77.0 °F 50.0 °F 39% 30.02 in 10.0 mi SSW 10.4 mph - N/A   Clear
3:53 PM 75.9 °F 48.0 °F 37% 30.00 in 10.0 mi WSW 8.1 mph - N/A   Clear
4:53 PM 75.0 °F 48.0 °F 38% 29.99 in 10.0 mi WSW 6.9 mph - N/A   Clear
5:53 PM 75.0 °F 46.9 °F 37% 29.98 in 10.0 mi SSW 6.9 mph - N/A   Clear
6:53 PM 71.1 °F 51.1 °F 49% 29.98 in 10.0 mi SSW 3.5 mph - N/A   Clear
7:53 PM 64.9 °F 54.0 °F 68% 29.98 in 10.0 mi SSE 4.6 mph - N/A   Clear
8:53 PM 66.0 °F 55.0 °F 68% 30.00 in 10.0 mi South 6.9 mph - N/A   Clear
9:53 PM 66.0 °F 57.0 °F 73% 30.00 in 10.0 mi South 6.9 mph - N/A   Clear
10:53 PM 64.0 °F 57.9 °F 80% 29.99 in 10.0 mi South 6.9 mph - N/A   Clear
11:53 PM 63.0 °F 57.9 °F 84% 29.97 in 10.0 mi South 5.8 mph - N/A   Clear